2024-247M

Last updated on Wed Jan 15 2025 00:02:04 GMT+0000 (Coordinated Universal Time)

1 62388U 24247M 25013.75228858 .00006017 00000+0 29856-3 0 9998 2 62388 44.9996 235.6408 0001846 254.6315 105.4360 15.18586125 3681
UTC large
Height (km)
Speed (km/s)
/
Latitude / Longitude
Inclination (degrees)
Orbital Period (minutes)
Azimuth
Elevation
Range (km)
Doppler Factor

Next 0 passes for location: London (51.5072 / 0.1276)

Sorry there are no passes over London.